USTRANSCOM 7581


KWRI
Joint Base McGuire Dix Lakehurst
Wrightstown, New Jersey, US
EGUN
RAF Mildenhall
Mildenhall, , GB

Activity Log

Date Flight Route Aircraft Duration
No Flights Yet

Route Details

Aircraft Information
Primary: Boeing 767-300BDSF
Backup: Boeing 757-200SF
Route Data
Distance: 3069nm
Sched. Duration: 6h 40m
Avg. Duration: 0h 00m (-640m)
Times Flown: 0
Recm'd Route: Not Available
Planned Altitude: 31,000ft
Origin Wx: KWRI 151856Z 11011G15KT 10SM FEW034 FEW130 SCT190 28/19 A3018 RMK AO2A SLP219 T02810193 $
Dest. Wx: EGUN 151856Z AUTO 26007KT 9999 BKN038 15/15 A2998 RMK AO2 RAE09 SLP155 P0000 T01470147 $
Notes: USTRANSCOM CONTRACT FLIGHT

Financial History
Total Freight: 0lbs
Average Load: 0lbs/flt
Fuel Used: 0lbs
Avg. Fuel Used: 0lbs/flt
Fuel Expense: $0
Avg. Fuel Expense: $0
Avg. Fuel Cost: $0/lbs
Total Gross Income: $0
Pilot Pay: $0
Total Expenses: $0
Total Revenue: $0
Average Revenue: $0